Time,TemperatureF,DewpointF,PressureIn,WindDirection,WindDirectionDegrees,WindSpeedMPH,WindSpeedGustMPH,Humidity,HourlyPrecipIn,Conditions,Clouds,dailyrainin,SolarRadiationWatts/m^2,SoftwareType,DateUTC
2013-02-26 07:21:00,31.3,30.5,29.56,North,0,5.4,5.4,97,-99.99,,---,-99.99,0.00,VWS V14.01,2013-02-26 13:21:00,
2013-02-26 07:27:00,31.3,30.8,29.56,NNE,22,4.3,4.3,98,-99.99,,---,-99.99,0.00,VWS V14.01,2013-02-26 13:27:00,
2013-02-26 07:29:00,31.3,30.8,29.56,NNE,22,4.3,4.3,98,-99.99,,---,-99.99,0.00,VWS V14.01,2013-02-26 13:29:00,
2013-02-26 07:34:00,31.1,30.6,29.56,NNE,22,3.6,3.8,98,-99.99,,---,-99.99,0.00,VWS V14.01,2013-02-26 13:34:00,
2013-02-26 07:39:00,31.1,30.6,29.56,NNW,338,4.0,6.3,98,-99.99,,---,-99.99,0.00,VWS V14.01,2013-02-26 13:39:00,
2013-02-26 07:45:00,31.1,30.6,29.56,NNE,22,4.9,4.9,98,-99.99,,---,-99.99,0.00,VWS V14.01,2013-02-26 13:45:00,
2013-02-26 07:50:00,31.3,30.8,29.56,NNW,338,7.2,15.4,98,-99.99,,---,-99.99,0.00,VWS V14.01,2013-02-26 13:50:00,
2013-02-26 07:55:00,31.1,30.6,29.53,NNE,22,3.4,8.7,98,-99.99,,---,-99.99,0.00,VWS V14.01,2013-02-26 13:55:00,
2013-02-26 08:01:00,31.1,30.6,29.53,NNE,22,3.4,3.4,98,-99.99,,---,-99.99,0.00,VWS V14.01,2013-02-26 14:01:00,
2013-02-26 08:06:00,31.3,30.8,29.53,NNE,22,3.4,3.4,98,-99.99,,---,-99.99,0.00,VWS V14.01,2013-02-26 14:06:00,
2013-02-26 08:12:00,31.1,30.6,29.56,NNE,22,5.6,5.6,98,-99.99,,---,-99.99,0.00,VWS V14.01,2013-02-26 14:12:00,
2013-02-26 08:17:00,31.1,30.6,29.56,NNE,22,1.1,7.2,98,-99.99,,---,-99.99,0.00,VWS V14.01,2013-02-26 14:17:00,
2013-02-26 08:23:00,31.1,30.6,29.56,NNE,22,0.0,0.9,98,-99.99,,---,-99.99,0.00,VWS V14.01,2013-02-26 14:23:00,
2013-02-26 08:28:00,31.3,30.8,29.56,ENE,68,3.1,3.1,98,-99.99,,---,-99.99,0.00,VWS V14.01,2013-02-26 14:28:00,
2013-02-26 08:33:00,31.3,30.8,29.56,NNE,22,10.7,10.7,98,-99.99,,---,-99.99,0.00,VWS V14.01,2013-02-26 14:33:00,
2013-02-26 08:39:00,31.1,30.6,29.56,NNE,22,1.1,1.1,98,-99.99,,---,-99.99,0.00,VWS V14.01,2013-02-26 14:39:00,
2013-02-26 08:44:00,31.1,30.6,29.56,NNE,22,3.6,6.3,98,-99.99,,---,-99.99,0.00,VWS V14.01,2013-02-26 14:44:00,
2013-02-26 08:49:00,31.1,30.6,29.56,WNW,292,2.7,2.7,98,-99.99,,---,-99.99,0.00,VWS V14.01,2013-02-26 14:49:00,
2013-02-26 08:55:00,31.1,30.6,29.56,NNE,22,7.2,11.0,98,-99.99,,---,-99.99,0.00,VWS V14.01,2013-02-26 14:55:00,
2013-02-26 09:00:00,31.3,30.8,29.59,NNW,338,1.3,1.3,98,-99.99,,---,-99.99,0.00,VWS V14.01,2013-02-26 15:00:00,
2013-02-26 09:05:00,31.3,30.8,29.59,NNE,22,4.3,4.3,98,-99.99,,---,-99.99,0.00,VWS V14.01,2013-02-26 15:05:00,
2013-02-26 09:11:00,31.3,30.8,29.59,NNE,22,5.4,5.4,98,-99.99,,---,-99.99,0.00,VWS V14.01,2013-02-26 15:11:00,
2013-02-26 09:16:00,31.1,30.6,29.56,North,0,3.8,10.3,98,-99.99,,---,-99.99,0.00,VWS V14.01,2013-02-26 15:16:00,
2013-02-26 09:21:00,31.1,30.6,29.56,NNE,22,3.4,3.4,98,-99.99,,---,-99.99,0.00,VWS V14.01,2013-02-26 15:21:00,
2013-02-26 09:27:00,31.3,30.8,29.56,NNE,22,14.1,14.1,98,-99.99,,---,-99.99,0.00,VWS V14.01,2013-02-26 15:27:00,
2013-02-26 09:32:00,31.3,30.8,29.56,North,0,1.6,7.6,98,-99.99,,---,-99.99,0.00,VWS V14.01,2013-02-26 15:32:00,
2013-02-26 09:37:00,31.3,30.8,29.56,North,0,14.3,14.3,98,-99.99,,---,-99.99,0.00,VWS V14.01,2013-02-26 15:37:00,
2013-02-26 09:43:00,31.3,30.8,29.56,NNE,22,3.1,3.1,98,-99.99,,---,-99.99,0.00,VWS V14.01,2013-02-26 15:43:00,
2013-02-26 09:49:00,31.3,30.8,29.56,NNE,22,6.9,10.1,98,-99.99,,---,-99.99,0.00,VWS V14.01,2013-02-26 15:49:00,
2013-02-26 09:55:00,31.5,31.0,29.56,NNW,338,11.0,11.0,98,-99.99,,---,-99.99,0.00,VWS V14.01,2013-02-26 15:55:00,
2013-02-26 10:00:00,31.5,31.0,29.56,NNE,22,19.5,19.5,98,-99.99,,---,-99.99,0.00,VWS V14.01,2013-02-26 16:00:00,
2013-02-26 10:05:00,31.6,31.1,29.56,NNW,338,9.8,9.8,98,-99.99,,---,-99.99,0.00,VWS V14.01,2013-02-26 16:05:00,
2013-02-26 10:11:00,31.6,31.1,29.56,NNE,22,12.8,15.2,98,-99.99,,---,-99.99,0.00,VWS V14.01,2013-02-26 16:11:00,
2013-02-26 10:17:00,31.6,31.1,29.56,NNE,22,17.7,20.8,98,-99.99,,---,-99.99,0.00,VWS V14.01,2013-02-26 16:17:00,
2013-02-26 10:23:00,31.6,31.1,29.56,NNE,22,12.3,12.3,98,-99.99,,---,-99.99,0.00,VWS V14.01,2013-02-26 16:23:00,
2013-02-26 10:29:00,31.6,31.1,29.56,WNW,292,17.0,17.0,98,-99.99,,---,-99.99,0.00,VWS V14.01,2013-02-26 16:29:00,
2013-02-26 10:35:00,31.6,31.1,29.56,NNE,22,12.8,14.1,98,-99.99,,---,-99.99,0.00,VWS V14.01,2013-02-26 16:35:00,
2013-02-26 10:40:00,31.6,31.1,29.56,NNW,338,12.1,14.8,98,-99.99,,---,-99.99,0.00,VWS V14.01,2013-02-26 16:40:00,
2013-02-26 10:46:00,31.6,31.1,29.56,NNW,338,12.8,12.8,98,-99.99,,---,-99.99,0.00,VWS V14.01,2013-02-26 16:46:00,
2013-02-26 10:52:00,31.8,31.3,29.56,WNW,292,15.4,15.4,98,-99.99,,---,-99.99,0.00,VWS V14.01,2013-02-26 16:52:00,
2013-02-26 10:58:00,31.8,31.3,29.56,NNE,22,8.5,10.5,98,-99.99,,---,-99.99,0.00,VWS V14.01,2013-02-26 16:58:00,
2013-02-26 11:04:00,31.8,31.3,29.56,NNE,22,13.2,13.2,98,-99.99,,---,-99.99,0.00,VWS V14.01,2013-02-26 17:04:00,
2013-02-26 11:10:00,31.8,31.3,29.56,NNE,22,9.6,9.6,98,-99.99,,---,-99.99,0.00,VWS V14.01,2013-02-26 17:10:00,
2013-02-26 11:15:00,31.8,31.3,29.56,NNE,22,9.6,9.6,98,-99.99,,---,-99.99,0.00,VWS V14.01,2013-02-26 17:15:00,
2013-02-26 11:21:00,31.8,31.3,29.56,North,0,5.4,10.5,98,-99.99,,---,-99.99,0.00,VWS V14.01,2013-02-26 17:21:00,
2013-02-26 11:27:00,31.8,31.3,29.56,NW,315,7.8,13.2,98,-99.99,,---,-99.99,0.00,VWS V14.01,2013-02-26 17:27:00,
2013-02-26 11:32:00,31.8,31.3,29.56,NNE,22,9.0,10.7,98,-99.99,,---,-99.99,0.00,VWS V14.01,2013-02-26 17:32:00,
2013-02-26 11:37:00,32.4,31.9,29.53,NNE,22,12.5,17.0,98,-99.99,,---,-99.99,0.00,VWS V14.01,2013-02-26 17:37:00,
2013-02-26 11:43:00,32.4,31.9,29.53,NNE,22,13.9,13.9,98,-99.99,,---,-99.99,0.00,VWS V14.01,2013-02-26 17:43:00,
2013-02-26 11:49:00,32.4,31.9,29.53,NNW,338,8.1,14.8,98,-99.99,,---,-99.99,0.00,VWS V14.01,2013-02-26 17:49:00,
2013-02-26 11:54:00,32.4,31.9,29.56,NNW,338,15.4,18.6,98,-99.99,,---,-99.99,0.00,VWS V14.01,2013-02-26 17:54:00,
2013-02-26 11:59:00,32.4,31.9,29.56,NNE,22,10.3,10.3,98,-99.99,,---,-99.99,0.00,VWS V14.01,2013-02-26 17:59:00,
2013-02-26 12:05:00,32.4,31.9,29.56,NNE,22,13.2,13.4,98,-99.99,,---,-99.99,0.00,VWS V14.01,2013-02-26 18:05:00,
2013-02-26 12:11:00,32.4,31.9,29.56,NNW,338,10.5,12.8,98,-99.99,,---,-99.99,0.00,VWS V14.01,2013-02-26 18:11:00,
2013-02-26 12:17:00,32.2,31.7,29.56,NNE,22,12.3,16.1,98,-99.99,,---,-99.99,0.00,VWS V14.01,2013-02-26 18:17:00,
2013-02-26 12:23:00,32.2,31.7,29.56,NNW,338,9.6,12.8,98,-99.99,,---,-99.99,0.00,VWS V14.01,2013-02-26 18:23:00,
2013-02-26 12:29:00,32.2,31.7,29.56,NNE,22,12.1,12.1,98,-99.99,,---,-99.99,0.00,VWS V14.01,2013-02-26 18:29:00,
2013-02-26 12:35:00,32.2,31.7,29.56,North,0,14.5,14.5,98,-99.99,,---,-99.99,0.00,VWS V14.01,2013-02-26 18:35:00,
2013-02-26 12:40:00,32.2,31.7,29.56,NW,315,8.1,8.1,98,-99.99,,---,-99.99,0.00,VWS V14.01,2013-02-26 18:40:00,
2013-02-26 12:45:00,32.2,31.7,29.56,NNE,22,13.0,13.0,98,-99.99,,---,-99.99,0.00,VWS V14.01,2013-02-26 18:45:00,
2013-02-26 12:50:00,32.2,31.7,29.56,NW,315,8.7,8.7,98,-99.99,,---,-99.99,0.00,VWS V14.01,2013-02-26 18:50:00,
2013-02-26 12:55:00,32.2,31.7,29.56,NNE,22,7.8,7.8,98,-99.99,,---,-99.99,0.00,VWS V14.01,2013-02-26 18:55:00,
2013-02-26 13:00:00,32.2,31.7,29.56,NNE,22,10.3,13.6,98,-99.99,,---,-99.99,0.00,VWS V14.01,2013-02-26 19:00:00,
2013-02-26 13:06:00,32.2,31.7,29.56,North,0,8.1,8.1,98,-99.99,,---,-99.99,0.00,VWS V14.01,2013-02-26 19:06:00,
2013-02-26 13:12:00,32.2,31.7,29.59,North,0,11.0,11.0,98,-99.99,,---,-99.99,0.00,VWS V14.01,2013-02-26 19:12:00,
2013-02-26 13:17:00,32.2,31.7,29.59,NNE,22,12.1,12.1,98,-99.99,,---,-99.99,0.00,VWS V14.01,2013-02-26 19:17:00,
2013-02-26 13:23:00,32.2,31.7,29.56,NNW,338,9.6,14.1,98,-99.99,,---,-99.99,0.00,VWS V14.01,2013-02-26 19:23:00,
2013-02-26 13:30:00,32.2,31.7,29.56,NNE,22,10.1,10.7,98,-99.99,,---,-99.99,0.00,VWS V14.01,2013-02-26 19:30:00,
2013-02-26 13:35:00,32.2,31.7,29.56,NNW,338,5.6,15.7,98,-99.99,,---,-99.99,0.00,VWS V14.01,2013-02-26 19:35:00,
2013-02-26 13:41:00,32.2,31.7,29.59,NNE,22,6.3,6.3,98,-99.99,,---,-99.99,0.00,VWS V14.01,2013-02-26 19:41:00,
2013-02-26 13:46:00,32.2,31.7,29.59,NNE,22,10.3,10.3,98,-99.99,,---,-99.99,0.00,VWS V14.01,2013-02-26 19:46:00,
2013-02-26 13:52:00,32.2,31.7,29.59,North,0,13.2,13.2,98,-99.99,,---,-99.99,0.00,VWS V14.01,2013-02-26 19:52:00,
2013-02-26 13:57:00,32.2,31.7,29.59,North,0,13.2,13.2,98,-99.99,,---,-99.99,0.00,VWS V14.01,2013-02-26 19:57:00,
2013-02-26 14:02:00,32.2,31.7,29.59,NNE,22,14.5,14.5,98,-99.99,,---,-99.99,0.00,VWS V14.01,2013-02-26 20:02:00,
2013-02-26 14:09:00,32.2,31.7,29.59,NNE,22,6.7,10.5,98,-99.99,,---,-99.99,0.00,VWS V14.01,2013-02-26 20:09:00,
2013-02-26 14:15:00,32.2,31.7,29.59,NNW,338,8.5,14.5,98,-99.99,,---,-99.99,0.00,VWS V14.01,2013-02-26 20:15:00,
2013-02-26 14:21:00,32.2,31.7,29.59,NNE,22,12.8,12.8,98,-99.99,,---,-99.99,0.00,VWS V14.01,2013-02-26 20:21:00,
2013-02-26 14:27:00,32.2,31.7,29.59,NNW,338,9.8,12.3,98,-99.99,,---,-99.99,0.00,VWS V14.01,2013-02-26 20:27:00,
2013-02-26 14:32:00,32.2,31.7,29.59,NNW,338,9.8,9.8,98,-99.99,,---,-99.99,0.00,VWS V14.01,2013-02-26 20:32:00,
2013-02-26 14:38:00,32.2,31.7,29.59,NE,45,8.1,8.1,98,-99.99,,---,-99.99,0.00,VWS V14.01,2013-02-26 20:38:00,
2013-02-26 14:43:00,32.2,31.7,29.59,NNE,22,7.8,7.8,98,-99.99,,---,-99.99,0.00,VWS V14.01,2013-02-26 20:43:00,
2013-02-26 14:49:00,32.4,31.9,29.59,NNE,22,7.4,10.3,98,-99.99,,---,-99.99,0.00,VWS V14.01,2013-02-26 20:49:00,
2013-02-26 14:54:00,32.4,31.9,29.59,NNE,22,8.5,10.3,98,-99.99,,---,-99.99,0.00,VWS V14.01,2013-02-26 20:54:00,
2013-02-26 15:00:00,32.4,31.9,29.59,NNE,22,13.2,13.9,98,-99.99,,---,-99.99,0.00,VWS V14.01,2013-02-26 21:00:00,
2013-02-26 15:05:00,32.4,31.9,29.59,NNE,22,12.3,12.3,98,-99.99,,---,-99.99,0.00,VWS V14.01,2013-02-26 21:05:00,
2013-02-26 15:11:00,32.4,31.9,29.59,NE,45,9.8,9.8,98,-99.99,,---,-99.99,0.00,VWS V14.01,2013-02-26 21:11:00,
2013-02-26 15:17:00,32.2,31.7,29.59,NNE,22,7.8,15.2,98,-99.99,,---,-99.99,0.00,VWS V14.01,2013-02-26 21:17:00,
2013-02-26 15:22:00,32.2,31.7,29.62,NNW,338,12.8,12.8,98,-99.99,,---,-99.99,0.00,VWS V14.01,2013-02-26 21:22:00,
2013-02-26 15:27:00,32.2,31.7,29.62,NNW,338,7.2,12.8,98,-99.99,,---,-99.99,0.00,VWS V14.01,2013-02-26 21:27:00,
2013-02-26 15:33:00,32.2,31.7,29.62,North,0,10.5,10.5,98,-99.99,,---,-99.99,0.00,VWS V14.01,2013-02-26 21:33:00,
2013-02-26 15:38:00,32.2,31.7,29.62,NNW,338,10.3,10.3,98,-99.99,,---,-99.99,0.00,VWS V14.01,2013-02-26 21:38:00,
2013-02-26 15:44:00,32.2,31.7,29.62,NNE,22,13.2,13.2,98,-99.99,,---,-99.99,0.00,VWS V14.01,2013-02-26 21:44:00,
2013-02-26 15:50:00,32.0,31.5,29.62,NNW,338,8.5,8.5,98,-99.99,,---,-99.99,0.00,VWS V14.01,2013-02-26 21:50:00,
2013-02-26 15:55:00,32.0,31.5,29.62,NNW,338,8.5,8.5,98,-99.99,,---,-99.99,0.00,VWS V14.01,2013-02-26 21:55:00,
2013-02-26 16:01:00,32.0,31.5,29.62,NNE,22,18.3,18.3,98,-99.99,,---,-99.99,0.00,VWS V14.01,2013-02-26 22:01:00,
2013-02-26 16:06:00,32.0,31.5,29.62,NNE,22,8.5,8.5,98,-99.99,,---,-99.99,0.00,VWS V14.01,2013-02-26 22:06:00,
2013-02-26 16:11:00,32.0,31.5,29.62,NNW,338,13.0,13.0,98,-99.99,,---,-99.99,0.00,VWS V14.01,2013-02-26 22:11:00,
2013-02-26 16:17:00,32.0,31.5,29.62,NNE,22,7.8,9.4,98,-99.99,,---,-99.99,0.00,VWS V14.01,2013-02-26 22:17:00,
2013-02-26 16:22:00,31.8,31.3,29.62,North,0,7.6,7.6,98,-99.99,,---,-99.99,0.00,VWS V14.01,2013-02-26 22:22:00,
2013-02-26 16:28:00,31.8,31.3,29.62,NNW,338,10.3,10.3,98,-99.99,,---,-99.99,0.00,VWS V14.01,2013-02-26 22:28:00,
2013-02-26 16:33:00,31.8,31.3,29.62,NNW,338,7.6,10.3,98,-99.99,,---,-99.99,0.00,VWS V14.01,2013-02-26 22:33:00,
2013-02-26 16:38:00,31.6,31.1,29.62,NNW,338,9.0,9.0,98,-99.99,,---,-99.99,0.00,VWS V14.01,2013-02-26 22:38:00,
2013-02-26 16:44:00,31.6,31.1,29.62,NNW,338,9.6,10.3,98,-99.99,,---,-99.99,0.00,VWS V14.01,2013-02-26 22:44:00,
2013-02-26 16:50:00,31.6,31.1,29.62,NNW,338,10.3,10.3,98,-99.99,,---,-99.99,0.00,VWS V14.01,2013-02-26 22:50:00,
2013-02-26 16:56:00,31.6,31.1,29.65,NNE,22,9.8,11.4,98,-99.99,,---,-99.99,0.00,VWS V14.01,2013-02-26 22:56:00,
2013-02-26 17:01:00,31.6,31.1,29.65,NNW,338,6.0,6.0,98,-99.99,,---,-99.99,0.00,VWS V14.01,2013-02-26 23:01:00,
2013-02-26 17:07:00,31.5,31.0,29.65,North,0,7.4,7.4,98,-99.99,,---,-99.99,0.00,VWS V14.01,2013-02-26 23:07:00,
2013-02-26 17:13:00,31.5,31.0,29.65,NNW,338,8.5,8.5,98,-99.99,,---,-99.99,0.00,VWS V14.01,2013-02-26 23:13:00,
2013-02-26 17:19:00,31.5,31.0,29.65,NNW,338,10.1,11.0,98,-99.99,,---,-99.99,0.00,VWS V14.01,2013-02-26 23:19:00,
2013-02-26 17:24:00,31.5,31.0,29.65,NNW,338,6.0,10.1,98,-99.99,,---,-99.99,0.00,VWS V14.01,2013-02-26 23:24:00,
2013-02-26 17:30:00,31.5,31.0,29.65,NNW,338,10.3,11.0,98,-99.99,,---,-99.99,0.00,VWS V14.01,2013-02-26 23:30:00,
2013-02-26 17:35:00,31.5,31.0,29.65,NNW,338,10.3,10.3,98,-99.99,,---,-99.99,0.00,VWS V14.01,2013-02-26 23:35:00,
2013-02-26 17:40:00,31.3,30.8,29.65,NNW,338,11.0,11.0,98,-99.99,,---,-99.99,0.00,VWS V14.01,2013-02-26 23:40:00,
2013-02-26 17:46:00,31.3,30.8,29.65,NNE,22,7.2,8.1,98,-99.99,,---,-99.99,0.00,VWS V14.01,2013-02-26 23:46:00,
2013-02-26 17:51:00,31.3,30.8,29.65,NW,315,6.5,6.5,98,-99.99,,---,-99.99,0.00,VWS V14.01,2013-02-26 23:51:00,
2013-02-26 17:57:00,31.3,30.8,29.65,NNW,338,7.8,7.8,98,-99.99,,---,-99.99,0.00,VWS V14.01,2013-02-26 23:57:00,
2013-02-26 18:03:00,31.3,30.8,0.00,North,0,0.0,0.0,98,-99.99,,---,-99.99,0.00,VWS V14.01,2013-02-27 00:03:00,
2013-02-26 18:09:00,31.3,30.8,29.65,NNE,22,11.9,11.9,98,-99.99,,---,-99.99,0.00,VWS V14.01,2013-02-27 00:09:00,
2013-02-26 18:15:00,31.3,30.8,29.65,NNE,22,8.1,10.5,98,-99.99,,---,-99.99,0.00,VWS V14.01,2013-02-27 00:15:00,
2013-02-26 18:21:00,31.1,30.6,29.65,NNE,22,9.8,12.3,98,-99.99,,---,-99.99,0.00,VWS V14.01,2013-02-27 00:21:00,
2013-02-26 18:26:00,31.1,30.6,29.65,NNE,22,7.8,8.5,98,-99.99,,---,-99.99,0.00,VWS V14.01,2013-02-27 00:26:00,
2013-02-26 18:31:00,31.1,30.6,29.68,North,0,6.5,11.0,98,-99.99,,---,-99.99,0.00,VWS V14.01,2013-02-27 00:31:00,
2013-02-26 18:36:00,31.1,30.6,29.68,NNW,338,10.1,10.7,98,-99.99,,---,-99.99,0.00,VWS V14.01,2013-02-27 00:36:00,
2013-02-26 18:42:00,31.1,30.6,29.68,NNW,338,7.8,7.8,98,-99.99,,---,-99.99,0.00,VWS V14.01,2013-02-27 00:42:00,
2013-02-26 18:48:00,31.1,30.6,29.68,NNE,22,8.1,8.1,98,-99.99,,---,-99.99,0.00,VWS V14.01,2013-02-27 00:48:00,
2013-02-26 18:54:00,31.1,30.6,29.68,NNE,22,8.1,8.1,98,-99.99,,---,-99.99,0.00,VWS V14.01,2013-02-27 00:54:00,
2013-02-26 19:01:00,0.0,0.0,29.68,NNE,22,10.5,10.5,0,-99.99,,---,-99.99,0.00,VWS V14.01,2013-02-27 01:01:00,
2013-02-26 19:07:00,31.1,30.6,29.68,NW,315,8.1,8.1,98,-99.99,,---,-99.99,0.00,VWS V14.01,2013-02-27 01:07:00,
2013-02-26 19:12:00,31.1,30.6,29.68,NNE,22,7.8,11.0,98,-99.99,,---,-99.99,0.00,VWS V14.01,2013-02-27 01:12:00,
2013-02-26 19:17:00,31.1,30.6,29.68,NNW,338,10.7,10.7,98,-99.99,,---,-99.99,0.00,VWS V14.01,2013-02-27 01:17:00,
2013-02-26 19:23:00,31.1,30.6,29.68,NNE,22,7.6,7.6,98,-99.99,,---,-99.99,0.00,VWS V14.01,2013-02-27 01:23:00,
2013-02-26 19:28:00,31.1,30.6,29.68,NNW,338,8.1,10.1,98,-99.99,,---,-99.99,0.00,VWS V14.01,2013-02-27 01:28:00,
2013-02-26 19:34:00,30.9,30.4,29.68,North,0,9.0,9.0,98,-99.99,,---,-99.99,0.00,VWS V14.01,2013-02-27 01:34:00,